When you browse on this site, cookies collect data to enhance your experience and personalize the content and advertising you see.
Visit our Privacy Policy to learn more. By continuing to use the site, you agree to this use of cookies and data.
  • In Hungary
  • List of Countries
  • For 7 days
  • Water Temperature
  • Weather Map
  • News
  • Weather Widgets
  • user-avatar
    Login

    Hourly Weather Genazoh

    Today, 19 October, Saturday

    Time Temperature Precipitation Wind Pressure Humidity
    00:00 +7°C° 0 mm 1 mps 594 mmHg 51%
    01:00 +7°C° 0 mm 1 mps 594 mmHg 52%
    02:00 +7°C° 0 mm 1 mps 594 mmHg 53%
    03:00 +7°C° 0 mm 1 mps 594 mmHg 53%
    04:00 +7°C° 0 mm 1 mps 594 mmHg 54%
    05:00 +7°C° 0 mm 1 mps 594 mmHg 54%
    06:00 +7°C° 0 mm 1 mps 594 mmHg 55%
    07:00 +9°C° 0 mm 1 mps 596 mmHg 50%
    08:00 +10°C° 0 mm 0 mps 597 mmHg 46%
    09:00 +12°C° 0 mm 0 mps 598 mmHg 42%
    10:00 +14°C° 0.1 mm 1 mps 598 mmHg 42%
    11:00 +15°C° 0.1 mm 1 mps 598 mmHg 42%
    12:00 +15°C° 0.1 mm 2 mps 599 mmHg 41%
    13:00 +15°C° 0.2 mm 1 mps 598 mmHg 44%
    14:00 +14°C° 0.2 mm 1 mps 598 mmHg 47%
    15:00 +14°C° 0.2 mm 1 mps 597 mmHg 49%
    16:00 +12°C° 0.1 mm 1 mps 597 mmHg 57%
    17:00 +11°C° 0.1 mm 1 mps 596 mmHg 65%
    18:00 +8°C° 0.1 mm 0 mps 596 mmHg 72%
    19:00 +7°C° 0 mm 0 mps 596 mmHg 74%
    20:00 +7°C° 0 mm 0 mps 596 mmHg 75%
    21:00 +7°C° 0 mm 0 mps 596 mmHg 76%
    22:00 +6°C° 0 mm 0 mps 596 mmHg 77%
    23:00 +6°C° 0 mm 0 mps 595 mmHg 79%

    Tomorrow, 20 October, Sunday

    Time Temperature Precipitation Wind Pressure Humidity
    00:00 +5°C° 0 mm 0 mps 595 mmHg 80%
    01:00 +5°C° 0 mm 0 mps 595 mmHg 81%
    02:00 +6°C° 0 mm 1 mps 595 mmHg 82%
    03:00 +6°C° 0 mm 1 mps 595 mmHg 82%
    04:00 +6°C° 0 mm 1 mps 595 mmHg 82%
    05:00 +6°C° 0 mm 1 mps 595 mmHg 81%
    06:00 +5°C° 0 mm 1 mps 596 mmHg 81%
    07:00 +7°C° 0 mm 1 mps 597 mmHg 74%
    08:00 +9°C° 0 mm 1 mps 598 mmHg 67%
    09:00 +11°C° 0 mm 0 mps 599 mmHg 61%
    10:00 +12°C° 0.1 mm 1 mps 599 mmHg 59%
    11:00 +13°C° 0.1 mm 1 mps 599 mmHg 57%
    12:00 +14°C° 0.1 mm 2 mps 599 mmHg 55%
    13:00 +14°C° 0.5 mm 2 mps 599 mmHg 58%
    14:00 +13°C° 0.5 mm 1 mps 599 mmHg 62%
    15:00 +13°C° 0.5 mm 1 mps 598 mmHg 65%
    16:00 +11°C° 0.4 mm 1 mps 598 mmHg 73%
    17:00 +10°C° 0.4 mm 1 mps 597 mmHg 80%
    18:00 +7°C° 0.4 mm 0 mps 597 mmHg 87%
    19:00 +7°C° 0.1 mm 0 mps 597 mmHg 88%
    20:00 +6°C° 0.1 mm 0 mps 597 mmHg 89%
    21:00 +6°C° 0.1 mm 0 mps 597 mmHg 89%
    22:00 +6°C° 0 mm 0 mps 597 mmHg 90%
    23:00 +6°C° 0 mm 0 mps 597 mmHg 91%

    Day after tomorrow, 21 October, Monday

    Time Temperature Precipitation Wind Pressure Humidity
    00:00 +7°C° 0 mm 1 mps 597 mmHg 91%
    01:00 +7°C° 0 mm 1 mps 597 mmHg 92%
    02:00 +7°C° 0 mm 1 mps 597 mmHg 93%
    03:00 +7°C° 0 mm 1 mps 597 mmHg 93%
    04:00 +7°C° 0 mm 1 mps 597 mmHg 93%
    05:00 +5°C° 0 mm 0 mps 597 mmHg 93%
    06:00 +5°C° 0 mm 0 mps 597 mmHg 92%
    07:00 +6°C° 0 mm 0 mps 597 mmHg 87%
    08:00 +9°C° 0 mm 1 mps 598 mmHg 82%
    09:00 +10°C° 0 mm 1 mps 599 mmHg 77%
    10:00 +10°C° 0 mm 1 mps 599 mmHg 75%
    11:00 +11°C° 0 mm 1 mps 599 mmHg 72%
    12:00 +12°C° 0 mm 1 mps 599 mmHg 69%
    13:00 +12°C° 0 mm 1 mps 599 mmHg 71%
    14:00 +11°C° 0 mm 1 mps 599 mmHg 72%
    15:00 +11°C° 0 mm 1 mps 598 mmHg 73%
    16:00 +10°C° 0 mm 1 mps 598 mmHg 79%
    17:00 +9°C° 0 mm 1 mps 597 mmHg 85%
    18:00 +7°C° 0 mm 1 mps 597 mmHg 90%
    19:00 +7°C° 0 mm 1 mps 597 mmHg 91%
    20:00 +7°C° 0 mm 1 mps 597 mmHg 91%
    21:00 +7°C° 0 mm 1 mps 596 mmHg 91%
    22:00 +7°C° 0 mm 1 mps 596 mmHg 91%
    23:00 +7°C° 0 mm 1 mps 596 mmHg 90%

    22 October, Tuesday

    Time Temperature Precipitation Wind Pressure Humidity
    00:00 +7°C° 0 mm 1 mps 596 mmHg 89%
    01:00 +6°C° 0 mm 1 mps 596 mmHg 88%
    02:00 +6°C° 0 mm 1 mps 596 mmHg 87%
    03:00 +6°C° 0 mm 1 mps 596 mmHg 86%
    04:00 +5°C° 0 mm 1 mps 595 mmHg 87%
    05:00 +5°C° 0 mm 1 mps 595 mmHg 87%
    06:00 +4°C° 0 mm 1 mps 595 mmHg 88%
    07:00 +6°C° 0 mm 1 mps 596 mmHg 80%
    08:00 +8°C° 0 mm 1 mps 597 mmHg 71%
    09:00 +9°C° 0 mm 1 mps 598 mmHg 63%
    10:00 +11°C° 0 mm 1 mps 598 mmHg 60%
    11:00 +12°C° 0 mm 1 mps 598 mmHg 57%
    12:00 +13°C° 0 mm 1 mps 599 mmHg 54%
    13:00 +12°C° 0 mm 1 mps 598 mmHg 56%
    14:00 +12°C° 0 mm 1 mps 598 mmHg 59%
    15:00 +12°C° 0 mm 1 mps 598 mmHg 61%
    16:00 +10°C° 0 mm 1 mps 597 mmHg 71%
    17:00 +8°C° 0 mm 1 mps 596 mmHg 80%
    18:00 +6°C° 0 mm 0 mps 596 mmHg 89%
    19:00 +5°C° 0 mm 0 mps 596 mmHg 89%
    20:00 +5°C° 0 mm 0 mps 596 mmHg 90%
    21:00 +5°C° 0 mm 0 mps 596 mmHg 90%
    22:00 +4°C° 0 mm 0 mps 595 mmHg 90%
    23:00 +4°C° 0 mm 0 mps 595 mmHg 91%

    23 October, Wednesday

    Time Temperature Precipitation Wind Pressure Humidity
    00:00 +4°C° 0 mm 0 mps 595 mmHg 91%
    01:00 +3°C° 0 mm 0 mps 595 mmHg 91%
    02:00 +3°C° 0 mm 0 mps 595 mmHg 91%
    03:00 +4°C° 0 mm 1 mps 595 mmHg 91%
    04:00 +3°C° 0 mm 0 mps 595 mmHg 90%
    05:00 +3°C° 0 mm 0 mps 595 mmHg 90%
    06:00 +2°C° 0 mm 0 mps 595 mmHg 89%
    07:00 +5°C° 0 mm 1 mps 596 mmHg 81%
    08:00 +7°C° 0 mm 1 mps 597 mmHg 73%
    09:00 +9°C° 0 mm 1 mps 598 mmHg 65%
    10:00 +10°C° 0 mm 1 mps 598 mmHg 61%
    11:00 +11°C° 0 mm 1 mps 598 mmHg 56%
    12:00 +12°C° 0 mm 1 mps 598 mmHg 51%
    13:00 +12°C° 0 mm 1 mps 598 mmHg 55%
    14:00 +11°C° 0 mm 1 mps 598 mmHg 59%
    15:00 +11°C° 0 mm 1 mps 597 mmHg 62%
    16:00 +9°C° 0 mm 1 mps 597 mmHg 71%
    17:00 +8°C° 0 mm 1 mps 597 mmHg 79%
    18:00 +5°C° 0 mm 0 mps 596 mmHg 87%
    19:00 +5°C° 0 mm 0 mps 596 mmHg 88%
    20:00 +5°C° 0 mm 0 mps 596 mmHg 88%
    21:00 +6°C° 0 mm 1 mps 596 mmHg 89%
    22:00 +6°C° 0 mm 1 mps 596 mmHg 89%
    23:00 +6°C° 0 mm 1 mps 596 mmHg 89%

    24 October, Thursday

    Time Temperature Precipitation Wind Pressure Humidity
    00:00 +6°C° 0 mm 1 mps 596 mmHg 89%
    01:00 +5°C° 0 mm 1 mps 596 mmHg 90%
    02:00 +5°C° 0 mm 1 mps 596 mmHg 91%
    03:00 +5°C° 0 mm 1 mps 596 mmHg 91%
    04:00 +5°C° 0 mm 1 mps 596 mmHg 92%
    05:00 +4°C° 0 mm 1 mps 595 mmHg 92%
    06:00 +3°C° 0 mm 0 mps 595 mmHg 93%
    07:00 +5°C° 0 mm 1 mps 596 mmHg 86%
    08:00 +6°C° 0 mm 1 mps 596 mmHg 79%
    09:00 +7°C° 0 mm 1 mps 597 mmHg 73%
    10:00 +8°C° 0 mm 1 mps 597 mmHg 68%
    11:00 +9°C° 0 mm 1 mps 597 mmHg 64%
    12:00 +9°C° 0 mm 2 mps 598 mmHg 60%
    13:00 +9°C° 0 mm 2 mps 597 mmHg 60%
    14:00 +9°C° 0 mm 2 mps 597 mmHg 61%
    15:00 +9°C° 0 mm 2 mps 597 mmHg 61%
    16:00 +8°C° 0 mm 1 mps 596 mmHg 70%
    17:00 +7°C° 0 mm 1 mps 596 mmHg 79%
    18:00 +5°C° 0 mm 1 mps 595 mmHg 88%
    19:00 +4°C° 0 mm 1 mps 595 mmHg 88%
    20:00 +4°C° 0 mm 1 mps 595 mmHg 89%
    21:00 +4°C° 0 mm 1 mps 595 mmHg 89%
    22:00 +3°C° 0 mm 1 mps 595 mmHg 89%
    23:00 +3°C° 0 mm 1 mps 594 mmHg 88%
    Show more